Location: Newark
(28.4500°N, 16.2500°W)
Time: 23:54:56
(UTC+00:00)

CAS-4A - Visible Passes

Search period start: 23 October 2019 00:00
Search period end: 02 November 2019 00:00
Orbit: 528 x 546 km, 43.0° (Epoch: 23 October)

Date Brightness Start Highest point End Pass type
(mag) Time Alt. Az. Time Alt. Az. Time Alt. Az.
23 Oct ? 18:53:51 10° W 18:57:38 36° NNW 19:01:27 10° NE visible
23 Oct ? 20:36:45 10° NW 20:37:52 12° NNW 20:37:52 12° NNW visible
24 Oct ? 20:27:08 10° NNW 20:28:12 11° NNW 20:28:12 11° NNW visible
25 Oct ? 20:17:33 10° NNW 20:18:29 11° N 20:18:29 11° N visible
26 Oct ? 20:07:55 10° NNW 20:08:38 10° N 20:08:44 10° N visible
27 Oct ? 19:58:10 10° N 19:58:39 10° N 19:58:58 10° N visible
28 Oct ? 19:48:05 10° N 19:48:40 10° N 19:49:13 10° N visible
29 Oct ? 19:37:45 10° N 19:38:40 11° N 19:39:28 10° NNE visible
30 Oct ? 19:27:22 10° N 19:28:41 11° N 19:29:44 10° NNE visible
31 Oct ? 19:16:58 10° NNW 19:18:40 12° NNE 19:20:04 11° NNE visible
01 Nov ? 19:06:33 10° NNW 19:08:39 14° NNE 19:10:27 11° NE visible
01 Nov ? 20:45:37 10° NW 20:45:49 11° NW 20:45:49 11° NW visible
